Wind_Speed
10 9 7 7 8 10 12 13 14 15 17 19 22 25 27 29 30 31 31 31 32 34 32 28 30 29 29 28 28 28 26 23 16 27 31 31 31 32 31 31 32 34 37
9 6 4 4 5 7 10 14 16 18 20 23 26 29 29 30 30 30 32 31 30 32 32 31 27 26 29 30 30 30 26 28 24 23 28 31 32 31 29 30 31 32 35
9 6 3 1 3 7 11 14 17 20 23 26 28 29 30 31 31 30 26 26 27 28 29 28 29 27 26 25 26 27 27 26 25 24 28 28 32 30 33 32 31 33 34
12 10 7 4 4 8 12 15 18 21 24 27 28 29 30 30 29 23 24 26 28 27 27 27 28 28 28 28 27 26 26 26 24 25 26 26 25 27 29 29 28 30 33
15 14 11 7 6 9 13 17 19 22 24 26 28 29 29 29 20 24 26 26 26 28 27 27 26 26 28 31 32 31 29 27 26 25 26 25 23 21 21 22 28 25 31
20 18 14 10 9 12 15 18 20 23 25 26 28 29 31 27 24 22 24 27 27 27 28 27 27 26 25 27 29 32 33 32 28 24 26 24 26 24 22 23 26 22 12
22 19 15 12 12 13 16 18 20 24 25 27 28 29 30 31 23 25 25 27 27 26 26 27 27 25 25 27 28 29 31 31 33 33 31 29 28 26 25 25 24 25 29
21 19 15 13 13 15 17 19 21 23 25 27 28 27 30 31 26 25 25 26 25 25 24 25 26 27 26 27 29 30 29 29 28 29 32 36 35 33 33 35 35 38 37
23 19 16 14 15 16 18 20 21 23 24 26 25 28 29 31 27 23 24 25 25 26 25 26 27 29 28 27 30 30 27 27 28 31 34 36 34 34 33 34 33 28 24
22 17 14 14 15 17 18 19 20 21 24 25 27 27 26 29 25 22 23 25 26 26 27 28 27 29 29 30 31 30 28 29 30 31 34 35 33 36 31 33 32 28 30
17 15 14 14 15 16 17 16 19 22 24 26 27 28 27 25 29 22 22 26 26 28 26 26 29 32 33 32 31 32 33 35 35 35 33 31 28 27 29 29 32 35 34
16 15 14 14 14 15 17 17 18 20 23 24 26 29 27 28 27 22 24 25 28 30 31 31 34 35 35 37 38 36 36 36 30 30 30 30 30 31 32 34 35 38 41
16 15 15 14 14 15 17 18 19 19 21 23 22 24 28 28 26 22 26 28 31 31 31 35 38 37 35 32 31 33 33 31 28 28 29 31 31 34 34 34 35 38 43
17 16 14 15 15 15 16 17 19 20 20 21 20 24 26 21 23 27 30 27 30 32 31 25 27 32 32 28 28 26 27 27 29 31 32 33 32 31 31 31 32 32 33
16 15 15 15 15 17 17 17 18 19 18 20 22 21 20 20 23 27 29 31 32 31 34 32 32 26 22 23 23 23 23 24 25 27 30 30 29 29 29 29 29 31 30
16 15 15 15 16 17 18 20 15 17 16 17 18 16 18 19 21 24 26 27 28 28 25 25 22 21 22 24 25 27 27 26 26 28 29 29 28 27 28 29 30 31 29
18 16 16 16 17 17 17 17 21 17 13 8 8 13 15 17 19 21 23 24 22 20 23 22 20 21 23 25 25 26 27 29 30 29 29 28 26 27 27 29 29 28 27
17 18 18 17 17 17 17 17 16 17 20 21 14 13 12 14 16 18 19 21 27 23 21 21 22 23 24 24 26 27 29 30 30 29 31 27 25 25 25 26 28 28 25
18 19 18 17 18 17 16 16 16 15 17 19 21 16 14 15 14 15 14 19 22 25 26 24 24 24 26 27 27 28 28 29 31 30 29 24 25 24 25 26 26 28 25
20 19 18 18 17 18 17 16 16 15 15 16 18 18 18 18 22 22 20 21 21 22 24 24 26 27 27 28 29 29 29 30 30 28 28 28 25 24 25 26 24 22 21
20 19 19 18 19 18 17 17 16 14 15 17 17 14 14 18 19 20 21 22 23 25 25 26 28 29 30 29 29 29 28 29 29 28 28 28 27 25 24 22 21 21 19
19 19 19 19 18 18 18 16 16 15 16 17 17 15 12 14 17 19 21 22 23 24 23 24 26 27 28 30 32 32 30 30 29 29 29 28 27 26 26 23 19 15 14
17 19 19 18 18 17 17 16 16 16 17 16 16 17 17 17 18 19 21 23 24 25 25 25 26 27 27 29 30 31 31 32 30 30 29 28 26 25 23 19 16 10 3
17 17 18 19 17 18 18 17 16 16 17 17 17 18 18 19 20 21 21 22 24 25 24 25 25 25 27 28 27 29 31 35 29 28 24 23 23 21 18 14 12 9 7
16 17 18 18 18 18 17 18 18 18 18 18 19 20 20 20 22 22 22 22 23 24 25 25 24 25 25 26 24 26 27 31 27 25 22 20 18 16 15 13 11 10 9
16 16 17 17 17 18 19 20 20 19 20 20 20 20 21 22 23 23 22 23 23 24 25 24 23 23 24 24 21 23 23 27 26 23 20 18 18 17 15 14 14 14 12
Wind_Direction
131 116 100 76 52 35 25 19 12 4 360 355 352 348 346 344 343 340 336 334 329 328 326 323 317 317 313 311 307 303 298 288 268 284 289 293 292 292 291 287 284 281 280
156 145 119 66 29 13 5 2 357 353 351 349 347 346 345 343 340 336 332 331 327 323 320 318 311 312 309 308 306 303 296 293 279 281 286 290 290 294 293 290 285 280 278
183 181 184 218 342 351 352 349 347 343 342 342 342 343 341 339 336 335 331 325 319 313 310 308 306 306 302 298 297 294 292 290 284 278 281 283 286 289 291 290 287 283 277
208 210 219 240 309 331 335 336 335 335 335 336 337 338 337 335 335 333 322 316 312 307 304 302 301 300 299 298 296 290 289 287 287 283 283 283 281 286 284 284 282 280 280
216 219 225 241 279 309 318 322 326 328 330 332 333 333 333 334 329 323 320 315 311 308 305 303 299 296 294 291 291 291 288 284 282 283 282 281 277 278 273 281 279 281 276
222 222 226 244 277 299 307 313 319 324 327 330 332 332 331 330 325 322 317 312 308 306 305 305 302 301 298 294 289 285 283 285 280 277 278 272 273 273 276 274 274 278 286
219 220 228 248 272 293 304 314 321 325 326 328 328 329 327 327 325 319 316 310 306 303 302 302 302 300 299 296 292 289 285 283 277 283 284 279 287 285 290 282 275 263 266
217 220 232 251 276 295 306 314 319 321 323 325 325 326 326 324 322 317 316 310 304 301 299 298 296 295 294 296 292 288 284 281 279 276 274 278 280 283 277 276 279 282 280
218 223 237 261 281 294 303 310 316 317 319 321 322 322 323 322 326 317 315 310 303 299 299 296 291 291 294 296 290 287 286 286 285 282 280 280 281 283 282 281 272 275 262
220 229 246 266 282 292 300 308 313 316 315 315 315 319 321 322 329 317 313 308 302 300 296 294 294 296 296 295 291 288 283 281 279 276 274 275 275 276 276 271 282 275 269
225 234 251 269 282 291 298 306 308 310 309 311 315 319 323 329 332 317 315 309 302 298 298 298 292 293 297 294 290 283 274 280 274 270 270 269 267 273 273 270 267 264 265
229 240 256 271 281 290 295 300 301 304 306 311 316 320 327 331 330 314 315 311 310 305 298 296 292 291 289 288 287 284 284 291 295 289 282 276 275 272 271 269 268 266 266
232 244 259 267 277 284 288 294 298 303 304 308 312 312 319 327 327 318 313 310 312 308 302 301 304 305 305 304 301 298 291 284 278 275 273 274 273 272 272 271 268 269 271
237 247 259 267 273 275 280 287 294 297 298 300 303 304 311 313 316 316 313 315 315 309 306 316 316 311 308 304 304 300 297 289 284 280 279 279 279 276 273 271 269 272 270
242 250 255 265 271 276 278 284 287 291 291 296 299 300 304 312 315 320 322 321 324 326 324 322 323 327 321 316 312 307 304 299 294 287 280 278 275 275 274 270 269 270 263
242 247 255 261 266 274 281 288 280 282 284 284 290 293 305 308 317 322 324 327 331 333 333 335 325 323 320 317 315 313 311 308 301 294 292 281 269 273 273 272 268 261 261
246 251 252 255 263 268 274 282 296 302 301 286 283 304 310 314 322 326 328 330 336 339 345 331 320 320 317 315 312 311 308 308 306 299 292 281 274 272 271 271 271 266 261
248 248 251 258 263 266 269 277 284 295 305 309 307 312 316 322 327 330 332 331 346 349 342 328 320 319 316 314 313 312 311 313 310 308 305 281 270 268 272 273 280 286 263
249 251 255 260 262 264 269 275 281 283 287 296 311 319 337 337 330 335 346 357 346 339 335 327 325 320 318 317 315 313 312 312 312 313 318 301 277 272 271 271 276 280 296
247 250 255 258 259 260 267 273 276 277 284 291 300 313 328 337 332 337 348 349 344 337 334 329 328 325 322 321 319 318 316 320 320 319 320 320 317 284 272 275 276 283 292
253 252 255 255 256 261 267 268 271 275 280 288 293 305 311 312 319 327 336 340 340 336 337 337 335 333 332 329 324 321 320 316 323 321 321 321 321 318 314 309 291 273 274
254 257 259 257 264 263 266 268 269 273 277 282 291 300 302 304 315 323 327 329 331 330 333 331 330 333 336 335 334 328 320 322 321 326 323 322 323 324 329 328 322 310 275
261 263 262 265 268 269 268 267 268 269 273 278 287 295 303 310 313 317 320 323 325 326 330 331 330 331 336 338 341 342 329 324 324 332 331 331 331 333 336 338 341 335 338
269 270 269 274 270 268 268 270 269 270 273 280 288 293 299 307 310 313 317 320 321 324 328 330 330 331 333 336 339 344 345 344 336 344 342 341 341 345 348 356 11 22 50
271 271 274 274 273 270 272 272 272 275 279 285 291 296 303 306 308 312 316 319 321 323 328 331 333 334 334 335 337 342 347 352 346 351 355 357 359 4 11 19 29 49 68
276 271 275 276 272 270 271 274 276 280 285 290 293 298 303 306 308 311 315 318 320 322 326 329 334 336 336 336 338 345 352 355 351 359 6 12 17 22 29 36 44 53 57
Height
858 859 859 860 860 861 861 861 861 860 858 856 854 852 850 847 845 843 843 839 836 833 831 829 827 826 822 819 817 815 810 809 804 794 791 786 783 784 782 781 782 780 780
856 857 857 858 859 859 859 858 858 857 855 853 850 847 845 843 841 839 837 835 833 829 826 824 820 819 816 813 811 807 804 801 799 790 786 782 777 775 775 774 773 772 770
854 855 856 857 857 856 855 855 854 853 852 850 847 844 842 840 837 835 834 831 828 824 822 819 815 813 810 807 804 800 797 793 790 786 778 778 772 770 766 765 764 764 762
852 853 854 854 854 854 853 852 851 849 848 846 843 841 839 836 834 832 830 825 821 818 816 814 811 809 805 801 797 794 790 786 784 779 774 772 768 763 760 758 754 755 754
848 850 851 851 851 850 850 849 848 846 844 842 839 837 835 833 831 829 825 821 817 814 811 809 806 803 799 796 793 788 786 782 779 775 769 766 761 759 757 754 750 749 745
843 845 847 847 847 846 847 846 844 842 840 837 835 832 830 828 826 824 822 817 812 809 804 802 798 795 791 788 785 782 780 776 772 769 764 758 753 755 754 751 747 745 739
838 840 842 842 842 842 842 841 839 837 835 832 830 828 825 822 821 819 816 812 807 804 800 796 792 789 785 781 778 775 772 770 767 763 756 752 750 750 750 746 743 738 732
833 835 837 838 837 837 837 836 835 832 830 828 826 824 821 818 815 813 810 806 802 798 795 791 787 782 778 775 771 766 763 761 758 756 751 745 744 743 744 742 738 733 726
828 830 832 832 832 832 832 831 830 828 826 823 821 819 816 813 810 808 805 801 796 792 789 784 780 775 772 769 763 758 754 751 750 747 742 738 735 733 734 733 728 727 712
822 825 826 827 827 827 827 827 826 824 821 819 816 815 813 808 806 802 801 796 790 785 781 776 773 769 764 760 756 751 745 742 739 734 730 727 725 723 724 725 722 717 711
818 820 822 822 823 823 823 823 821 820 818 814 811 809 807 804 799 797 795 790 784 777 772 768 764 760 755 751 746 742 736 732 726 722 718 716 715 713 713 713 712 710 703
814 816 817 818 818 819 818 818 818 816 813 810 807 803 800 798 794 791 788 784 778 772 766 760 755 749 743 738 734 729 724 721 718 714 711 707 705 702 700 699 697 696 691
809 811 812 813 814 815 814 814 813 812 809 806 804 799 794 792 788 785 781 776 771 765 759 752 745 739 734 728 725 721 717 713 708 704 700 695 694 691 689 687 685 683 678
804 806 807 808 809 810 810 809 807 806 804 802 799 795 790 787 784 779 772 767 763 757 750 744 740 736 729 723 718 714 710 706 702 697 691 687 684 681 678 677 672 671 667
799 801 803 804 805 805 805 804 802 800 799 797 794 791 788 784 780 775 769 763 757 751 745 738 732 728 723 718 713 709 704 700 694 689 683 678 675 672 668 666 663 660 656
794 797 798 799 800 800 799 797 798 795 794 793 790 788 784 781 776 771 766 760 754 748 741 737 731 727 722 716 710 703 698 693 688 682 676 669 665 662 659 655 653 649 643
790 792 794 795 795 795 795 793 789 788 786 785 785 783 780 776 772 767 762 757 752 747 742 736 731 726 720 714 708 702 695 689 683 675 668 661 657 654 651 644 639 634 629
786 788 789 790 791 790 789 788 787 784 780 777 777 776 774 771 767 764 760 752 746 742 739 734 729 723 717 711 704 698 690 683 676 669 660 652 649 646 641 636 629 622 611
782 783 784 785 785 785 785 783 782 780 777 774 770 769 768 765 763 759 756 750 746 740 736 731 726 720 714 708 701 694 687 679 672 665 656 648 642 639 633 627 621 615 607
776 777 778 778 779 780 779 778 776 775 773 770 767 764 761 759 756 753 750 747 743 739 734 728 723 718 712 705 698 691 683 676 668 661 654 646 638 632 625 619 614 608 602
770 772 773 773 773 773 773 772 771 769 767 766 764 762 761 757 753 750 746 743 740 736 731 726 720 715 709 703 696 689 682 675 667 659 651 643 636 628 621 614 606 601 598
767 768 768 767 768 767 767 766 765 764 763 761 759 758 757 754 750 746 742 739 736 733 729 724 718 713 708 702 695 687 680 672 665 657 650 642 634 627 619 611 605 600 596
763 763 763 762 762 762 761 761 760 759 758 756 755 753 751 748 746 743 739 735 732 728 724 719 714 708 704 699 693 686 679 671 663 656 648 640 633 626 619 613 607 602 599
759 758 758 757 757 756 756 755 755 754 753 751 750 748 746 743 741 738 735 731 727 723 719 715 710 705 699 694 689 684 677 669 664 655 648 641 634 627 621 615 610 607 604
755 755 754 753 753 752 752 751 750 749 748 746 744 743 740 738 735 733 730 727 723 718 714 710 705 700 695 691 686 681 675 667 662 655 648 642 636 630 625 620 616 612 610
752 751 750 750 749 748 747 746 745 744 742 741 739 737 735 732 730 727 724 721 717 713 710 705 701 697 692 688 684 680 674 668 663 656 650 644 638 634 629 626 622 620 618